Weather History for McCook, NE

Change the Weather History Date:

Monday, November 21, 2011

  Actual Average Record
Temperature  
Mean Temperature 29 °F 35 °F  
Max Temperature 45 °F 49 °F 72 °F (2006)
Min Temperature 12 °F 22 °F -3 °F (1964)
Degree Days  
Heating Degree Days 37    
Moisture  
Dew Point 20 °F    
Average Humidity 79    
Maximum Humidity 92    
Minimum Humidity 51    
Precipitation  
Precipitation 0.00 in 0.03 in 1.12 in (1973)
Month to date precipitation 0.28 0.71  
Year to date precipitation 19.20 21.65  
Sea Level Pressure  
Sea Level Pressure 30.17 in    
Wind  
Wind Speed 2 mph (South)    
Max Wind Speed 9 mph    
Max Gust Speed -    
Visibility 10 miles    
Events      
T = Trace of Precipitation, MM = Missing Value Source: NWS Daily Summary

Daily Weather History Graph

Daily Weather History Graph

Search for Another Location

Airport:

Trip Planner

Search our weather history database for the weather conditions in past years. The results will help you decide how hot, cold, wet, or windy it might be!

Date:

Astronomy

Nov. 21, 2011 Rise Set
Actual Time 7:34 AM CST 5:21 PM CST
Civil Twilight 7:05 AM CST 5:50 PM CST
Nautical Twilight 6:31 AM CST 6:24 PM CST
Astronomical Twilight 5:59 AM CST 6:56 PM CST
Moon 3:14 AM CST (11/21) 2:45 PM CST (11/21)
Length of Visible Light 10h 45m
Length of Day
9h 46m
Waning Crescent, 17% of the Moon is Illuminated
Nov 21
Waning Crescent
Nov 25
New
Dec 2
First Quarter
Dec 10
Full
Dec 17
Last Quarter

Hourly Weather History & Observations

Time (CST) Temp. Windchill Dew Point Humidity Pressure Visibility Wind Dir Wind Speed Gust Speed Precip Events Conditions
12:53 AM 18.0 °F - 15.1 °F 88% 30.27 in 10.0 mi Calm Calm - N/A   Clear
1:53 AM 19.0 °F - 16.0 °F 88% 30.25 in 10.0 mi Calm Calm - N/A   Clear
2:53 AM 15.1 °F 9.4 °F 12.9 °F 91% 30.24 in 10.0 mi NE 3.5 mph - N/A   Clear
3:53 AM 17.1 °F - 15.1 °F 92% 30.23 in 10.0 mi Calm Calm - N/A   Clear
4:53 AM 17.1 °F - 15.1 °F 92% 30.22 in 10.0 mi Calm Calm - N/A   Clear
5:53 AM 12.9 °F 5.2 °F 10.9 °F 92% 30.25 in 10.0 mi WSW 4.6 mph - N/A   Clear
6:53 AM 14.0 °F 6.5 °F 12.0 °F 92% 30.25 in 10.0 mi SSW 4.6 mph - N/A   Clear
7:53 AM 14.0 °F 2.9 °F 10.9 °F 88% 30.25 in 10.0 mi SW 8.1 mph - N/A   Clear
8:53 AM 19.0 °F 12.3 °F 16.0 °F 88% 30.25 in 10.0 mi SSW 4.6 mph - N/A   Clear
9:53 AM 24.1 °F 19.7 °F 21.0 °F 88% 30.24 in 10.0 mi South 3.5 mph - N/A   Clear
10:53 AM 28.9 °F - 25.0 °F 85% 30.23 in 10.0 mi Calm Calm - N/A   Clear
11:53 AM 37.0 °F 30.4 °F 26.1 °F 65% 30.20 in 10.0 mi South 9.2 mph - N/A   Clear
12:53 PM 41.0 °F 37.1 °F 27.0 °F 57% 30.14 in 10.0 mi SE 5.8 mph - N/A   Clear
1:53 PM 44.1 °F - 27.0 °F 51% 30.08 in 10.0 mi Calm Calm - N/A   Clear
2:53 PM 44.1 °F 39.5 °F 27.0 °F 51% 30.08 in 10.0 mi SSE 8.1 mph - N/A   Clear
3:53 PM 42.1 °F 39.2 °F 27.0 °F 55% 30.06 in 10.0 mi SSE 4.6 mph - N/A   Clear
4:53 PM 39.0 °F 34.8 °F 27.0 °F 62% 30.08 in 10.0 mi SE 5.8 mph - N/A   Clear
5:53 PM 35.1 °F 31.0 °F 25.0 °F 67% 30.09 in 10.0 mi SSE 4.6 mph - N/A   Clear
6:53 PM 32.0 °F - 24.1 °F 73% 30.11 in 10.0 mi Calm Calm - N/A   Clear
7:53 PM 30.0 °F - 24.1 °F 79% 30.14 in 10.0 mi Calm Calm - N/A   Clear
8:53 PM 28.0 °F - 23.0 °F 81% 30.13 in 10.0 mi Calm Calm - N/A   Clear
9:53 PM 25.0 °F - 21.0 °F 85% 30.13 in 10.0 mi Calm Calm - N/A   Clear
10:53 PM 23.0 °F - 21.0 °F 92% 30.13 in 9.0 mi Calm Calm - N/A   Overcast
11:53 PM 24.1 °F 19.7 °F 21.0 °F 88% 30.12 in 9.0 mi SSW 3.5 mph - N/A   Clear